Overview Statistics Trail Chart Weather Telemetry Raw packets
 

This is the latest recevied weather packets stored in our database for station/object OK2ILA-10. If no packets are shown the sender has not sent any weather packets the latest 10 day(s).

<< 79 80 81 82 83 84 85 >>
Time Temp. Humidity Pressure Rain* Wind** Luminosity Snow
1788008508 24.44° C 46% 1017.5 hPa - - - -
1788007913 25° C 47% 1017.5 hPa - - - -
1788007909 25° C 47% 1017.5 hPa - - - -
1788007312 25° C 46% 1017.4 hPa - - - -
1788007308 25° C 46% 1017.4 hPa - - - -
1788006720 24.44° C 48% 1017.4 hPa - - - -
1788006708 24.44° C 48% 1017.4 hPa - - - -
1788006113 24.44° C 48% 1017.4 hPa - - - -
1788006108 24.44° C 48% 1017.4 hPa - - - -
1788005514 25° C 48% 1017.4 hPa - - - -
1788005507 25° C 48% 1017.4 hPa - - - -
1788004908 25° C 49% 1017.6 hPa - - - -
1788004309 25.56° C 48% 1017.7 hPa - - - -
1788003707 24.44° C 50% 1017.7 hPa - - - -
1788003107 24.44° C 49% 1017.7 hPa - - - -
1788002506 23.89° C 52% 1017.7 hPa - - - -
1788001906 22.78° C 52% 1017.8 hPa - - - -
1788001306 23.33° C 52% 1017.6 hPa - - - -
1788000710 24.44° C 51% 1017.7 hPa - - - -
1788000706 24.44° C 51% 1017.7 hPa - - - -
1788000106 25° C 51% 1017.7 hPa - - - -
1787999505 23.89° C 52% 1017.6 hPa - - - -
1787998909 23.33° C 55% 1017.7 hPa - - - -
1787998905 23.33° C 55% 1017.7 hPa - - - -
1787998309 24.44° C 53% 1017.7 hPa - - - -

* Rain since midnight (hover to see other rain measurements)
** Current wind speed in m/s (hover to see current wind gust speed)